Content
SEND FEEDBACK

Daily
Averages
Monthly
Summary
United States of America

REDDING, CALIFORNIA


Home > North America > United States > California
Elevation: 535 feet     Latitude: 40 31N     Longitude: 122 18W

WEATHER
 
SELECT A DAY
Number of Records: 187,239;   Date Range: 1/1/95 - 8/12/14
 
SHARE

PRINT THIS DATA

[ ← Previous Day ]
WEATHER ALMANAC - JANUARY 21, 2013
[ Next Day → ]
[ °C ]   °F
Weather ElementAverageHighLow
Temperature49.2 °F86 °F (2:53 pm)28 °F (5:53 am)
Dewpoint25.8 °F30.9 °F (11:53 am)19.9 °F (6:53 am)
Humidity48.1 %75 % (5:53 am)10 % (2:53 pm)
Barometer30.16 in30.21 in (2:53 am)30.09 in (1:53 pm)
Wind Speed2.3 mph8.1 mph (2:53 pm)
Weather ElementAverage
Visibility10 mi
Wind DirectionENE (64.8 °)

Weather ElementTotal
Precipitation---
Heating Degree Days8 (Base 65)
Growing Degree Days7 (Base 50)
Averaged from 23 records on January 21, 2013
WEATHER CONDITIONS BREAKOUT
WIND DIRECTION BREAKOUT
WEATHER BY HOUR - JANUARY 21, 2013
[ °C ]   °F
Local TimeTemperatureDewpointHumidityBarometerVisibilityWind DirectionWind SpeedGust SpeedPrecipitationEventsConditions
1:53 AM34.0 °F23.0 °F64 %30.20 in10.0 miNorth (10°)4.6 mphClear
2:53 AM30.9 °F23.0 °F72 %30.21 in10.0 miCalmClear
3:53 AM30.9 °F21.9 °F69 %30.19 in10.0 miCalmClear
4:53 AM30.0 °F21.0 °F69 %30.20 in10.0 miCalmClear
5:53 AM28.0 °F21.0 °F75 %30.20 in10.0 miCalmClear
6:53 AM28.0 °F19.9 °F72 %30.19 in10.0 miCalmClear
7:53 AM28.9 °F21.0 °F72 %30.18 in10.0 miCalmClear
8:53 AM39.0 °F27.0 °F62 %30.19 in10.0 miCalmClear
9:53 AM48.9 °F28.0 °F44 %30.19 in10.0 miCalmClear
10:53 AM55.9 °F30.0 °F37 %30.17 in10.0 miCalmClear
11:53 AM68.0 °F30.9 °F25 %30.14 in10.0 miCalmClear
12:53 PM78.1 °F28.9 °F17 %30.11 in10.0 miSE (130°)3.5 mphClear
1:53 PM84.9 °F28.0 °F13 %30.09 in10.0 miSSE (160°)6.9 mphClear
2:53 PM86.0 °F24.1 °F10 %30.10 in10.0 miSSE (160°)8.1 mphClear
3:53 PM81.0 °F23.0 °F12 %30.11 in10.0 miSSE (150°)6.9 mphClear
4:53 PM72.0 °F30.9 °F22 %30.13 in10.0 miSE (140°)6.9 mphClear
5:53 PM54.0 °F27.0 °F35 %30.15 in10.0 miESE (120°)3.5 mphClear
6:53 PM48.0 °F28.0 °F46 %30.15 in10.0 miWest (270°)4.6 mphClear
7:53 PM46.9 °F28.0 °F48 %30.16 in10.0 miNorth (10°)3.5 mphClear
8:53 PM42.1 °F28.0 °F58 %30.17 in10.0 miCalmClear
9:53 PM39.9 °F27.0 °F60 %30.17 in10.0 miCalmClear
10:53 PM39.9 °F26.1 °F58 %30.18 in10.0 miNNW (340°)4.6 mphClear
11:53 PM37.0 °F27.0 °F67 %30.17 in10.0 miCalmClear
Hourly data recorded from KRDD, located miles away from Redding, California







STORIES FROM OUR PARTNERS